sat.trackr.live / text

‹ back to catalog

STARLINK-37221

NORAD 68668 · 2026-077G

PAYLOAD ACTIVE UNKNOWN

§ Identity

Operator
Country
US
Launch date
2026-04-11
Launch site
AFWTR
Launch vehicle
Mass (kg)
RCS (m²)

Purposes: comms

External: N2YO · Heavens-Above · Gunter

§ Orbital elements

Epoch: 2026-09-20T02:35:14.568000Z

Period
93.91 min
Inclination
97.2852°
Eccentricity
0.0000980
Mean motion
15.33461706 rev/d
Perigee alt
464.8 km
Apogee alt
466.2 km
Semi-major
6,843.6 km
B*
6.8715e-4
RAAN
133.0198°
Arg perigee
189.4881°
Mean anomaly
170.6343°
Rev number
2,495

§ Raw data

STARLINK-372211 68668U 26077G   26263.10780750  .00022185  00000+0  68715-3 0  99902 68668  97.2852 133.0198 0000980 189.4881 170.6343 15.33461706 24950

JSON: /api/v1/satellites/68668 · /tle

For live sub-satellite position, see the globe view (requires WebGL).

§ Visibility from observer

Set your observer location to see the next 7 days of passes ≥ 10°. The values pass through the URL so the page stays shareable.

No JS? Fill the form by hand. The geolocation button needs JavaScript.